sat.trackr.live / text

‹ back to catalog

ONEWEB-0095

NORAD 45436 · 2020-020N

PAYLOAD ACTIVE UNKNOWN

§ Identity

Operator
Country
UK
Launch date
2020-03-21
Launch site
TYMSC
Launch vehicle
Mass (kg)
RCS (m²)

Purposes: comms

External: N2YO · Heavens-Above · Gunter

§ Orbital elements

Epoch: 2026-09-19T13:53:03.127488Z

Period
109.80 min
Inclination
87.8967°
Eccentricity
0.0001567
Mean motion
13.11417674 rev/d
Perigee alt
1,216.5 km
Apogee alt
1,218.9 km
Semi-major
7,595.8 km
B*
1.4125e-3
RAAN
2.3047°
Arg perigee
122.3287°
Mean anomaly
237.7993°
Rev number
31,504

§ Raw data

ONEWEB-00951 45436U 20020N   26262.57850842  .00000513  00000+0  14125-2 0  99962 45436  87.8967   2.3047 0001567 122.3287 237.7993 13.11417674315047

JSON: /api/v1/satellites/45436 · /tle

For live sub-satellite position, see the globe view (requires WebGL).

§ Visibility from observer

Set your observer location to see the next 7 days of passes ≥ 10°. The values pass through the URL so the page stays shareable.

No JS? Fill the form by hand. The geolocation button needs JavaScript.